Theta_e
314 315 316 317 318 320 323 326 330 330 333 336 337 338 339 340 337 335 334 335 334 334
314 314 314 315 317 317 319 322 327 330 331 333 335 337 338 337 337 335 335 334 335 335
312 313 313 313 315 316 318 321 322 322 325 329 331 332 333 333 334 333 334 334 334 333
312 314 314 315 316 316 317 318 319 321 322 324 326 330 330 330 331 332 334 336 334 331
313 313 313 315 316 316 317 318 320 322 323 324 325 325 325 326 329 330 331 334 334 334
307 307 309 310 312 313 315 317 319 321 322 322 323 324 324 325 326 326 327 329 332 335
306 307 308 310 311 312 314 314 316 318 319 320 321 323 324 325 325 324 326 329 331 332
308 308 308 308 309 310 310 311 312 312 313 316 318 318 320 321 322 322 323 325 328 330
306 306 307 307 307 307 307 308 308 309 310 310 310 304 304 309 315 318 322 322 324 326
306 306 306 307 306 305 305 306 306 307 309 310 311 304 303 305 313 315 319 321 321 322
305 305 306 306 306 305 305 305 305 307 308 309 310 303 301 303 313 317 318 319 321 323
303 305 305 305 305 305 304 304 305 307 308 308 309 302 301 303 312 314 317 322 325 326
302 304 305 305 306 305 305 305 306 306 307 306 308 301 300 303 312 315 320 322 323 308
301 302 304 305 306 305 305 306 304 305 306 307 308 309 300 298 310 317 318 318 320 323
Wind_Speed
7 4 4 5 4 4 4 3 4 5 4 5 4 4 3 2 5 5 5 7 8 8
6 6 6 6 5 4 4 3 4 4 5 3 3 2 4 3 4 3 6 8 7 7
8 7 6 5 6 6 4 3 4 4 4 3 3 3 2 1 2 4 4 5 7 9
8 7 7 6 5 5 5 5 6 5 5 4 4 4 5 4 4 6 7 7 10 12
4 5 6 6 7 7 7 6 6 6 6 6 6 6 5 4 5 6 7 7 8 9
7 6 7 8 7 6 6 6 5 5 4 4 3 2 3 4 5 5 5 7 7 9
8 9 9 7 6 8 7 6 5 4 4 3 2 2 3 4 6 6 6 6 6 8
9 8 7 8 8 6 7 6 6 6 4 3 2 3 4 5 7 8 8 7 7 8
5 6 9 9 9 8 7 6 6 6 6 5 3 5 7 7 8 11 10 10 7 7
5 6 6 7 8 9 9 7 7 7 6 5 4 8 10 12 7 8 10 8 7 8
8 8 7 8 9 7 6 8 7 6 5 4 4 9 10 12 7 8 9 9 10 8
11 11 10 11 11 9 7 6 6 5 6 6 6 10 12 8 5 8 10 9 9 8
14 14 14 13 11 8 8 10 7 8 7 8 8 10 13 9 4 8 8 8 7 10
15 15 15 12 11 10 11 8 9 9 7 8 8 9 13 12 6 6 7 6 5 5
Wind_Direction
163 162 173 175 173 175 193 216 186 202 207 212 196 209 207 226 211 203 227 226 219 246
164 170 185 185 174 171 185 202 215 177 180 188 193 206 165 173 236 224 223 227 235 240
177 180 180 167 192 192 183 193 177 188 169 156 156 162 147 197 239 243 262 252 240 243
193 186 174 184 190 193 181 190 189 183 174 167 176 180 167 192 218 219 239 234 228 237
220 172 182 194 191 187 198 197 196 186 179 174 179 171 184 208 208 216 231 239 241 258
203 185 215 204 194 194 186 184 176 169 170 167 190 240 232 223 247 242 241 260 267 273
212 204 205 209 193 178 177 168 157 161 161 166 181 206 253 252 253 259 256 248 255 268
220 197 191 189 176 185 175 174 169 166 175 178 191 237 237 254 258 256 260 262 260 268
255 215 190 187 180 174 187 187 178 187 183 182 206 234 269 260 269 271 258 259 253 256
251 216 240 204 192 188 186 187 200 201 181 204 223 236 252 266 265 262 251 251 255 265
251 248 212 217 221 206 184 194 203 212 208 208 235 240 252 266 275 263 251 247 254 252
235 240 239 225 224 206 190 193 188 193 210 205 230 228 245 262 268 268 258 251 248 246
228 223 223 225 224 206 205 206 196 206 204 208 225 225 240 253 255 265 252 249 254 248
228 225 226 224 219 208 210 201 193 199 194 214 218 229 232 248 238 244 258 258 264 268